Location: The Saddle
(36.8333°N, 80.3417°W)
Time: 15:40:32
(UTC-05:00)

Transit 4A - All Passes

Search period start: 30 January 2023 00:00
Search period end: 09 February 2023 00:00
Orbit: 871 x 973 km, 66.8° (Epoch: 30 January)

Date Brightness Start Highest point End Pass type
(mag) Time Alt. Az. Time Alt. Az. Time Alt. Az.
30 Jan - 02:12:18 10° NNE 02:13:35 11° NE 02:14:52 10° NE night (unlit)
30 Jan - 03:55:13 10° NNW 04:01:08 60° ENE 04:07:11 10° SE visible
30 Jan - 05:42:53 10° WNW 05:46:57 19° WSW 05:51:06 10° SSW visible
30 Jan - 17:16:09 10° SE 17:19:45 17° ESE 17:23:19 10° ENE daylight
30 Jan - 18:59:42 10° SW 19:05:28 63° WNW 19:11:15 10° NNE visible
30 Jan - 20:51:49 10° NW 20:52:59 11° NW 20:54:11 10° NNW visible
31 Jan - 02:19:47 10° N 02:23:15 16° NE 02:26:45 10° E night (unlit)
31 Jan - 04:04:21 10° NNW 04:10:23 89° ENE 04:16:32 10° SSE visible
31 Jan - 05:54:00 10° W 05:55:53 11° WSW 05:57:48 10° WSW visible
31 Jan - 17:23:55 10° SSE 17:28:43 27° ESE 17:33:28 10° NE daylight
31 Jan - 19:09:17 10° SW 19:14:46 41° WNW 19:20:16 10° NNE visible
01 Feb - 02:28:15 10° N 02:32:49 22° NE 02:37:27 10° E night (unlit)
01 Feb - 04:13:39 10° NW 04:19:32 61° WSW 04:25:35 10° SSE visible
01 Feb - 17:32:18 10° S 17:37:44 42° ESE 17:43:10 10° NE daylight
01 Feb - 19:19:12 10° WSW 19:24:09 28° NW 19:29:08 10° N visible
02 Feb - 02:36:59 10° N 02:42:17 32° NE 02:47:40 10° ESE night (unlit)
02 Feb - 04:23:06 10° NW 04:28:39 39° WSW 04:34:18 10° S visible
02 Feb - 17:41:04 10° SSW 17:46:51 65° ESE 17:52:36 10° NNE daylight
02 Feb - 19:29:31 10° W 19:33:39 20° NW 19:37:48 10° N visible
03 Feb - 02:45:54 10° NNW 02:51:39 46° ENE 02:57:31 10° SE night (unlit)
03 Feb - 04:32:50 10° NW 04:37:41 26° WSW 04:42:36 10° SSW night (unlit)
03 Feb - 16:08:26 10° ESE 16:10:30 12° ESE 16:12:34 10° E daylight
03 Feb - 17:50:10 10° SSW 17:56:00 82° WNW 18:01:51 10° NNE daylight
03 Feb - 19:40:23 10° WNW 19:43:14 14° NW 19:46:06 10° NNW visible
04 Feb - 01:11:12 10° NNE 01:13:32 12° NE 01:15:52 10° ENE night (unlit)
04 Feb - 02:54:57 10° NNW 03:00:56 69° ENE 03:07:04 10° SE night (unlit)
04 Feb - 04:43:04 10° WNW 04:46:39 16° WSW 04:50:16 10° SW night (unlit)
04 Feb - 16:15:21 10° SSE 16:19:25 20° ESE 16:23:29 10° ENE daylight
04 Feb - 17:59:34 10° SW 18:05:15 54° WNW 18:10:58 10° NNE daylight
05 Feb - 01:19:14 10° N 01:23:10 18° NE 01:27:07 10° E night (unlit)
05 Feb - 03:04:08 10° NNW 03:10:09 80° WSW 03:16:18 10° SSE night (unlit)
05 Feb - 16:23:22 10° SSE 16:28:24 31° ESE 16:33:26 10° NE daylight
05 Feb - 18:09:15 10° WSW 18:14:35 36° NW 18:19:56 10° NNE visible
06 Feb - 01:27:49 10° N 01:32:41 25° NE 01:37:38 10° ESE night (unlit)
06 Feb - 03:13:28 10° NW 03:19:17 52° WSW 03:25:15 10° S night (unlit)
06 Feb - 16:31:53 10° S 16:37:28 48° ESE 16:43:02 10° NE daylight
06 Feb - 18:19:18 10° WSW 18:24:00 25° NW 18:28:45 10° N visible
07 Feb - 01:36:37 10° N 01:42:07 36° NE 01:47:43 10° ESE night (unlit)
07 Feb - 03:23:00 10° NW 03:28:22 34° WSW 03:33:50 10° S night (unlit)
07 Feb - 16:40:46 10° SSW 16:46:35 76° ESE 16:52:24 10° NNE daylight
07 Feb - 18:29:46 10° W 18:33:32 17° NW 18:37:19 10° N visible
08 Feb - 01:45:35 10° NNW 01:51:27 53° ENE 01:57:27 10° SE night (unlit)
08 Feb - 03:32:52 10° WNW 03:37:23 22° WSW 03:41:58 10° SSW night (unlit)
08 Feb - 15:07:12 10° SE 15:10:10 14° ESE 15:13:08 10° ENE daylight
08 Feb - 16:49:58 10° SW 16:55:46 72° WNW 17:01:36 10° NNE daylight
08 Feb - 18:40:59 10° WNW 18:43:09 12° NW 18:45:21 10° NNW visible
